TUBIN
1 48900U 21059X   25231.76942292  .00066793  00000-0  63357-3 0  9990
2 48900  97.6770  47.1205 0002256 324.7169  35.3941 15.66706937231163
LEDSAT
1 49069U 21073D   25231.76393393  .00117040  00000-0  88811-3 0  9999
2 49069  97.3831 316.7839 0008454 178.4875 181.6416 15.71942511222570
CUTE
1 49263U 21088D   25231.18744433  .00016520  00000-0  29667-3 0  9997
2 49263  97.4478 309.6257 0005772 349.8340  10.2793 15.49947606215358
TeikyoSat 4
1 49396U 21102B   25231.56180327  .00001639  00000-0  11065-3 0  9997
2 49396  97.4063 267.4222 0010927 246.8628 113.1450 15.07901070207242
Z-Sat
1 49399U 21102E   25231.83494986  .00003860  00000-0  20994-3 0  9998
2 49399  97.3761 271.2320 0017055 211.8572 148.1630 15.14925016207769
KOSEN 1
1 49402U 21102H   25231.67081674  .00006391  00000-0  28942-3 0  9994
2 49402  97.3661 275.0375 0015650 183.9057 176.2059 15.21110932208096
HO-113
1 50466U 21131B   25231.87116458  .00000408  00000-0  14111-3 0  9995
2 50466  98.5095 320.8752 0002969 285.1727  74.9133 14.40884690191714
SNUGLITE 2
1 52899U 22065F   25231.40040699  .00000990  00000-0  20087-3 0  9991
2 52899  98.1781  12.7258 0006451 247.5198 112.5322 14.63356481166848
UmKA 1 (RS40S)
1 57172U 23091G   25231.84095992  .00006076  00000-0  31839-3 0  9992
2 57172  97.5531 286.8616 0015753  89.4100 270.8937 15.16053175118273
CubeBel-2 (EU11S)
1 57175U 23091K   25231.87217745  .00009515  00000-0  43781-3 0  9990
2 57175  97.5531 288.4945 0013431  95.3667 264.9100 15.20466445118385
ENSO
1 58470U 23185J   25231.85672506  .00089806  00000-0  93688-3 0  9993
2 58470  97.3673 309.6389 0006974 178.1894 181.9392 15.64201146 96146
EIRSAT-1
1 58472U 23185L   25231.78277615  .00449677  80900-4  13058-2 0  9998
2 58472  97.3583 313.3086 0007680 226.2864 133.7775 15.92864154 96382
SONATE-2
1 59112U 24043Q   25231.85983441  .00019404  00000-0  52203-3 0  9999
2 59112  97.5208   4.6064 0010155 214.8579 145.2001 15.37868582 81284
MO-122
1 60209U 24125G   25231.52919291  .00016600  00000-0  43870-3 0  9990
2 60209  97.2728  82.4372 0016365 238.7662 121.1980 15.38361978 62859
GRBBeta
1 60237U 24128C   25231.26203415  .00004022  00000-0  30181-3 0  9995
2 60237  61.9901 193.0135 0056152  72.6403 288.0819 15.03146303 60827
Curium One
1 60242U 24128H   25231.30655766  .00007388  00000-0  50086-3 0  9990
2 60242  61.9798 190.0477 0056209  69.2061 291.5040 15.05999699 60885
ROBUSTA-3A
1 60243U 24128J   25231.33189917  .00006852  00000-0  47276-3 0  9996
2 60243  61.9867 191.0305 0055438  66.7511 293.9405 15.05473568 60871
CatSat
1 60246U 24125J   25231.14651998  .00016064  00000-0  50867-3 0  9994
2 60246  97.2538  80.4398 0040580 200.3375 159.6253 15.32002122 60783
HYPERVIEW-1G (RS66S)
1 61772U 24199AP  25231.84671337  .00023895  00000-0  63596-3 0  9999
2 61772  97.3432 100.6466 0010726 300.5449  59.4737 15.38150009 87908
AO-123
1 61781U 24199AY  25231.79455720  .00007044  00000-0  25052-3 0  9992
2 61781  97.3452  98.6407 0013987 309.5840  50.4165 15.29203202 87761
ZIMSAT 2
1 61783U 24199BA  25231.80588014  .00048677  00000-0  10046-2 0  9992
2 61783  97.3397 101.8646 0009325 293.2186  66.8081 15.45670967 91134
HADES-R (SO-124)
1 62690U 25009CK  25231.18348522  .00036519  00000-0  11152-2 0  9991
2 62690  97.4053 311.9203 0003687 188.9403 171.1774 15.33805037 32951
HYDRA-T
1 62692U 25009CM  25231.15450480  .00041364  00000-0  12465-2 0  9999
2 62692  97.4072 311.9595 0003597 183.2775 176.8445 15.34198648 32959
JINJUSat 1B
1 63210U 25052A   25231.17264335  .00009836  00000-0  43321-3 0  9992
2 63210  97.4320 124.4315 0006313  82.0716 278.1236 15.22013325 23981
NUSHSAT 1
1 63211U 25052B   25231.67948726  .00011391  00000-0  49533-3 0  9991
2 63211  97.4308 124.9560 0006389  84.4209 275.7756 15.22411123 24069
TEVEL2-4
1 63213U 25052D   25231.24815072  .00010814  00000-0  47568-3 0  9998
2 63213  97.4229 124.2943 0005575  97.1458 263.0412 15.22034819 23997
TEVEL2-5
1 63214U 25052E   25231.24987865  .00010722  00000-0  47211-3 0  9992
2 63214  97.4225 124.2922 0005507  96.9513 263.2350 15.22002698 23998
TEVEL2-6
1 63215U 25052F   25231.25387287  .00010723  00000-0  47270-3 0  9992
2 63215  97.4230 124.2895 0005548  97.7348 262.4518 15.21962869 23995
TEVEL2-1
1 63217U 25052H   25231.20972092  .00009362  00000-0  41608-3 0  9999
2 63217  97.4198 124.1450 0005693 106.3768 253.8094 15.21721033 23988
TEVEL2-3
1 63218U 25052J   25231.27566314  .00009732  00000-0  43231-3 0  9998
2 63218  97.4205 124.2113 0005727 106.6408 253.5457 15.21728109 23999
TEVEL2-2
1 63219U 25052K   25231.27611839  .00009701  00000-0  43109-3 0  9992
2 63219  97.4203 124.2102 0005716 106.7419 253.4445 15.21718159 23997
TEVEL2-9
1 63237U 25052AD  25231.26708883  .00009633  00000-0  44381-3 0  9994
2 63237  97.4267 124.0490 0009808 121.1797 239.0401 15.20449135 23975
TEVEL2-7
1 63238U 25052AE  25231.20678191  .00008899  00000-0  41124-3 0  9992
2 63238  97.4268 123.9804 0009888 121.3949 238.8255 15.20369362 23969
TEVEL2-8
1 63239U 25052AF  25231.60514961  .00009977  00000-0  46091-3 0  9997
2 63239  97.4264 124.3628 0009895 120.4495 239.7719 15.20346666 24024
HYDRA-W
1 63490U 25052BL  25231.22314361  .00024385  00000-0  93018-3 0  9997
2 63490  97.4210 124.7619 0013703 118.6342 241.6276 15.26579886 24029
HADES-ICM (SO-125)
1 63492U 25052BN  25231.19678824  .00023615  00000-0  91858-3 0  9997
2 63492  97.4223 124.6567 0013764 122.3348 237.9225 15.25935626 24019
